Pope Field Airport, NC

4:06 PM EDT on June 25, 2017 (GMT -0400)
Pope Field Airport

Weather History for KPOB - January, 2014

Change the Weather History Date:

Tuesday, January 7, 2014

  Actual Average Record
Temperature  
Mean Temperature 19 °F -  
Max Temperature 27 °F 55 °F 77 °F (1998)
Min Temperature 11 °F 37 °F 11 °F (2014)
Degree Days  
Heating Degree Days 46    
Moisture  
Dew Point -3 °F    
Average Humidity 38    
Maximum Humidity 61    
Minimum Humidity 24    
Precipitation  
Precipitation 0.00 in - - ()
Sea Level Pressure  
Sea Level Pressure 30.45 in    
Wind  
Wind Speed 8 mph (WNW)    
Max Wind Speed 15 mph    
Max Gust Speed 18 mph    
Visibility 10 miles    
Events      
Averages and records for this station are not official NWS values.
T = Trace of Precipitation, MM = Missing Value Source: NWS Daily Summary

Daily Weather History Graph

Daily Weather History Graph

Search for Another Location

Airport or City:

Trip Planner

Search our weather history database for the weather conditions in past years. The results will help you decide how hot, cold, wet, or windy it might be!

Date:

Astronomy

Jan. 07, 2014 Rise Set
Actual Time 7:25 AM EST 5:19 PM EST
Civil Twilight 6:57 AM EST 5:47 PM EST
Nautical Twilight 6:25 AM EST 6:19 PM EST
Astronomical Twilight 5:54 AM EST 6:50 PM EST
Moon 11:29 AM EST (1/7) No Moon Set
Length of Visible Light 10h 50m
Length of Day
9h 54m
Waxing Crescent, 45% of the Moon is Illuminated
Jan 7
Waxing Crescent
Jan 7
First Quarter
Jan 15
Full
Jan 24
Last Quarter
Jan 30
New

Hourly Weather History & Observations

Time (EST) Temp. Windchill Dew Point Humidity Pressure Visibility Wind Dir Wind Speed Gust Speed Precip Events Conditions
12:58 AM 17.8 °F 3.4 °F -6.2 °F 34% 30.26 in 10.0 mi WNW 15.0 mph - N/A   Clear
1:58 AM 16.2 °F 3.9 °F -8.1 °F 34% 30.30 in 10.0 mi NW 10.4 mph 18.4 mph N/A   Clear
2:58 AM 15.3 °F 3.5 °F -6.0 °F 39% 30.34 in 10.0 mi NW 9.2 mph - N/A   Clear
3:58 AM 14.5 °F 3.6 °F -6.2 °F 40% 30.38 in 10.0 mi NW 8.1 mph - N/A   Clear
4:58 AM 13.1 °F 1.8 °F -7.8 °F 39% 30.40 in 10.0 mi NNW 8.1 mph - N/A   Clear
5:58 AM 12.2 °F 2.9 °F -7.4 °F 41% 30.44 in 10.0 mi NW 5.8 mph - N/A   Clear
6:58 AM 11.1 °F - -5.4 °F 47% 30.43 in 10.0 mi Calm Calm - N/A   Clear
7:55 AM 11.3 °F - -4.2 °F 50% 30.44 in 10.0 mi Calm Calm - N/A   Clear
8:58 AM 14.5 °F 7.1 °F -5.8 °F 40% 30.51 in 10.0 mi NW 4.6 mph - N/A   Clear
9:58 AM 17.2 °F 6.0 °F -7.4 °F 33% 30.53 in 10.0 mi NW 9.2 mph - N/A   Clear
10:58 AM 19.4 °F 10.4 °F -7.4 °F 30% 30.51 in 10.0 mi Variable 6.9 mph - N/A   Clear
11:58 AM 21.9 °F 15.7 °F -6.7 °F 28% 30.47 in 10.0 mi Variable 4.6 mph - N/A   Clear
12:58 PM 24.4 °F 15.6 °F -5.8 °F 27% 30.45 in 10.0 mi WNW 8.1 mph - N/A   Clear
1:58 PM 27.1 °F 20.7 °F -5.1 °F 25% 30.43 in 10.0 mi Variable 5.8 mph - N/A   Clear
2:58 PM 26.8 °F 17.7 °F -5.4 °F 25% 30.43 in 10.0 mi North 9.2 mph - N/A   Clear
3:58 PM 27.7 °F 22.4 °F -5.1 °F 24% 30.44 in 10.0 mi Variable 4.6 mph - N/A   Clear
4:58 PM 26.4 °F 19.8 °F -4.2 °F 26% 30.46 in 10.0 mi West 5.8 mph - N/A   Clear
5:58 PM 25.2 °F 19.5 °F -3.6 °F 29% 30.48 in 10.0 mi WNW 4.6 mph - N/A   Clear
6:58 PM 22.6 °F 14.3 °F 1.2 °F 40% 30.49 in 10.0 mi WSW 6.9 mph - N/A   Clear
7:55 PM 21.6 °F 14.0 °F 3.2 °F 45% 30.52 in 10.0 mi WSW 5.8 mph - N/A   Clear
8:55 PM 21.0 °F 13.4 °F 4.6 °F 49% 30.53 in 10.0 mi WSW 5.8 mph - N/A   Clear
9:55 PM 21.0 °F 14.6 °F 3.6 °F 47% 30.54 in 10.0 mi West 4.6 mph - N/A   Clear
10:55 PM 18.7 °F 11.9 °F 7.3 °F 61% 30.54 in 10.0 mi WSW 4.6 mph - N/A   Clear
11:55 PM 19.0 °F - 7.7 °F 61% 30.53 in 10.0 mi Calm Calm - N/A   Clear